Location: Newark
(44.9861°N, 0.2536°E)
Time: 19:33:07
(UTC+00:00)

HuskySat-1 - Pass Details

Date: 10 July 2020
Orbit: 457 x 471 km, 51.6° (Epoch: 11 August)

Event Time Altitude Azimuth Distance (km) Brightness Sun altitude
Exits shadow 23:46:52 12° 79° (E) 1,509 ? -22.8°
Drops below altitude 10° 23:47:09 10° 77° (ENE) 1,612 ? -22.8°
Sets 23:49:28 0° 66° (ENE) 2,487 ? -22.9°
